Location: Estación de Yanguas y Carbonero
(41.0667°N, 4.2667°W)
Time: 22:22:49
(UTC+00:00)

Daily predictions for brighter satellites

Satellite Brightness Start Highest point End
(mag) Time Altitude Azimuth Time Altitude Azimuth Time Altitude Azimuth
Cosmos 1953 2.8 17:41:36 10° NNE 17:44:58 32° ENE 17:48:20 10° SE
NOSS 0 Rocket 4.0 17:40:22 10° SSW 17:46:30 84° ESE 17:52:42 10° NNE
CZ-2D R/B 3.7 17:42:31 10° S 17:46:45 81° WSW 17:51:01 10° NNW
Lacrosse 5 3.1 17:42:14 10° NW 17:47:08 48° SW 17:52:01 10° SSE
SKYMED 2 4.3 17:47:53 10° NNE 17:51:50 33° E 17:55:45 10° SSE
ATLAS 2AS CENTAUR R/B 3.8 17:48:22 10° NNW 17:53:31 22° NNE 17:58:34 10° E
COSMOS 2428 3.5 17:48:22 10° SW 17:53:54 52° WNW 17:59:27 10° NNE
ACS3 Solar Sail 2.6 17:49:14 10° SE 17:54:43 31° ENE 18:00:13 10° N
IGS 5A 3.4 17:51:33 10° SSE 17:55:30 62° ENE 17:59:29 10° N
USA 267 4.1 17:51:00 10° SSE 17:57:23 56° SW 18:03:48 10° NW
Cosmos 990 Rocket 4.0 17:54:16 10° NNW 17:59:31 84° ENE 18:04:45 10° SSE
Cosmos 1174 4.0 17:57:19 10° NNW 18:01:01 51° ENE 18:05:30 10° SE
AQUARIUS 4.1 17:58:00 10° SSE 18:02:25 87° E 18:06:52 10° NNW
Cosmos 1634 Rocket 4.4 17:57:04 10° NNW 18:03:23 72° W 18:09:37 10° S
DNEPR-1 R/B 4.0 18:00:27 10° NNW 18:04:56 41° NE 18:08:57 10° ESE
Delta 2 Rocket 4.2 18:06:07 10° SW 18:08:57 27° S 18:11:41 10° ESE
Okean 3 3.4 18:06:51 10° S 18:10:55 85° W 18:15:03 10° N
Meteor 1-31 Rocket 3.5 18:08:03 10° SE 18:11:04 26° ENE 18:14:06 10° NNE
Meteor 1-16 Rocket 4.2 18:06:07 10° N 18:11:38 87° W 18:17:18 10° S
Cosmos 1707 Rocket 3.6 18:07:15 10° S 18:11:42 87° E 18:16:09 10° N
Okean 2 3.2 18:10:48 10° S 18:14:44 84° E 18:18:42 10° N
EO 1 Delta rocket 4.0 18:11:12 10° NNE 18:15:42 48° E 18:20:17 10° S
Cosmos 2142 Rocket 4.5 18:12:13 10° N 18:18:28 82° E 18:24:46 10° S
CZ-4 R/B 4.3 18:14:50 10° SSE 18:18:46 61° ENE 18:22:44 10° N
Cosmos 1937 Rocket 3.9 18:15:55 10° N 18:20:43 38° ENE 18:25:30 10° SE
BREEZE-M DEB (TANK) 4.4 18:04:17 10° WSW 18:24:55 76° NNW 18:28:55 17° NE
Cosmos 1825 4.0 18:23:05 10° SE 18:23:11 10° SE 18:23:11 10° SE
Cosmos 1943 Rocket 2.2 18:23:54 10° NNW 18:29:35 90° NE 18:35:11 10° SSE
Cosmos 1862 Rocket 4.0 18:25:18 10° SSW 18:29:38 65° W 18:34:00 10° N
RESURS DK-1 2.2 18:26:08 10° NNW 18:30:10 79° ENE 18:34:11 10° SSE
Cosmos 2237 Rocket 2.6 18:25:10 10° SW 18:30:47 64° WNW 18:36:29 10° NNE
BlueWalker 3 3.6 18:30:54 10° NNW 18:33:25 17° NNE 18:33:53 17° NNE
CZ-4B R/B 3.6 18:33:15 10° SSE 18:36:49 55° ENE 18:40:18 10° N
ISS -2.2 18:34:31 10° W 18:37:27 27° NNW 18:39:01 19° NNE
NOAA 6 4.0 18:33:39 10° SSE 18:38:40 63° ENE 18:43:44 10° N
COSMO-SKYMED 1 2.8 18:35:40 10° N 18:40:00 70° WNW 18:44:19 10° SSW
Cosmos 2344 4.5 18:34:02 10° WSW 18:41:12 41° NW 18:48:04 10° NNE
Cosmos 2278 Rocket 3.1 18:38:26 10° NNW 18:43:55 52° WSW 18:49:21 10° S
YAOGAN 1 2.4 18:43:09 10° SSE 18:47:21 65° ENE 18:51:36 10° N
CZ-4C R/B 2.3 18:44:50 10° SW 18:49:01 56° NW 18:53:05 16° NNE
Nadezhda 4 Rocket 4.0 18:44:31 10° S 18:50:38 83° W 18:56:49 10° N
ATLAS 5 CENTAUR R/B 0.8 18:50:42 10° SW 18:53:49 75° WNW 18:54:38 46° NNE
YAOGAN 11 4.0 18:51:31 23° NNE 18:54:04 60° ESE 18:58:17 10° S
Landsat 7 4.2 18:50:29 10° S 18:55:08 65° W 18:59:49 10° NNW
Cosmos 2195 Rocket 4.4 18:49:04 10° S 18:55:12 69° E 19:01:19 10° NNE
Meteor 1-24 Rocket 4.2 18:49:57 10° SSE 18:55:20 38° E 18:58:08 25° NE
Cosmos 1703 Rocket 3.4 18:53:57 10° S 18:58:23 78° E 19:02:12 14° N
SPOT 1/Viking Rocket 3.5 18:53:36 10° SSE 18:58:38 56° ENE 19:03:40 10° N
Resurs 1-3 3.5 18:58:56 10° SSE 19:03:09 58° ENE 19:07:24 10° N
Meteor 2-5 Rocket 4.0 19:00:31 10° SSE 19:05:54 45° E 19:07:38 35° NE
Cosmos 1703 3.5 19:05:16 10° SSW 19:08:44 58° W 19:10:32 26° N
Cosmos 841 Rocket 4.3 19:04:49 10° SW 19:09:54 51° WNW 19:15:02 10° N
Cosmos 1898 Rocket 4.3 19:07:35 10° NNW 19:12:43 53° WSW 19:17:51 10° S
Cosmos 1656 Rocket 3.7 19:08:43 10° NNW 19:14:06 52° ENE 19:14:50 49° E
Cosmos 1900 4.4 19:11:32 10° S 19:15:59 51° SE 19:15:59 51° SE
Cosmos 1814 Rocket 4.0 19:14:46 10° S 19:19:56 58° ESE 19:20:11 57° E
SL-16 R/B 2.1 19:14:21 10° SSW 19:19:59 86° WNW 19:22:50 31° NNE
Cosmos 1437 Rocket 3.8 19:20:31 10° S 19:22:39 33° S 19:22:39 33° S
CBERS 1 LM4 rocket 4.4 19:32:04 31° SSE 19:34:35 87° ENE 19:39:51 10° NNW
Cosmos 1818 3.4 19:31:01 10° NNW 19:36:30 89° NE 19:37:01 74° SE
Cosmos 1092 Rocket 4.1 19:30:30 10° SSW 19:36:37 72° W 19:42:52 10° N
ACS3 Solar Sail 3.0 19:32:00 10° SSW 19:38:01 44° W 19:44:08 10° NNW
Cosmos 2369 Rocket 2.9 19:35:10 10° NNW 19:38:45 38° N 19:38:45 38° N
ATLAS 2AS CENTAUR R/B 2.5 19:38:37 10° NNW 19:45:24 85° NE 19:46:36 63° SE
Cosmos 839 Rocket 4.1 19:44:32 10° SW 19:51:16 75° WNW 19:52:33 57° N
Cosmos 1867 4.4 19:51:32 10° SSW 19:55:00 41° SSW 19:55:00 41° SSW
Cosmos 2297 4.3 19:58:06 10° NNW 20:02:16 50° NNW 20:02:16 50° NNW
